• Join FlightAware (Why Join?)
  • Login
  • US Flag 
06:20PM EST


 

Airport Tracker/Info


-or-


 

Live Flight TrackerFlight Track Log ✈ EJA929 ✈ 11-Apr-2013 ✈ KSDL - KFAT

Flight Track Log - Related Links

Times and Time Zones

All times are in EDT time to prevent confusion due to time zone crossing. See the EJA929 flight status page for this flight to view local times or setup timezone preferences in your user account.

Time Position Orientation Groundspeed Altitude Reporting Facility
EDT Latitude Longitude Course Direction KTS MPH feet Rate Location/Type
05:46PM 33.6150 -111.9614 259° West 224 258 4,000  Level Albuquerque Center
05:47PM 33.6458 -112.0347 297° West 252 290 7,500 3,300 Climbing Albuquerque Center
05:48PM 33.6917 -112.1272 301° West 272 313 10,900 2,460 Climbing Albuquerque Center
05:50PM 33.7719 -112.1744 334° Northwest 320 368 12,600 1,740 Climbing Albuquerque Center
05:51PM 33.8594 -112.2286 333° Northwest 347 399 14,500 2,220 Climbing Albuquerque Center
05:51PM 33.9186 -112.2678 331° Northwest 360 414 16,300 2,580 Climbing Albuquerque Center
05:52PM 33.9483 -112.2853 334° Northwest 357 411 17,200 2,580 Climbing Albuquerque Center
05:53PM 34.0367 -112.3422 332° Northwest 359 413 20,000 2,580 Climbing Albuquerque Center
05:54PM 34.1100 -112.4186 319° Northwest 348 400 22,500 2,160 Climbing Albuquerque Center
05:55PM 34.1850 -112.4958 320° Northwest 353 406 24,500 2,100 Climbing Albuquerque Center
05:56PM 34.2803 -112.5933 320° Northwest 373 429 26,900 2,160 Climbing Albuquerque Center
05:58PM 34.4433 -112.7656 319° Northwest 388 447 31,300 1,920 Climbing Albuquerque Center
05:59PM 34.5253 -112.8503 320° Northwest 403 464 32,900 1,500 Climbing Albuquerque Center
06:00PM 34.6144 -112.9431 319° Northwest 417 480 34,400 1,560 Climbing Albuquerque Center
06:01PM 34.7258 -113.0606 319° Northwest 437 503 36,200 1,560 Climbing Albuquerque Center
06:02PM 34.8192 -113.1600 319° Northwest 444 511 37,700 1,320 Climbing Albuquerque Center
06:03PM 34.9122 -113.2600 319° Northwest 445 512 39,000 1,080 Climbing Albuquerque Center
06:04PM 34.9928 -113.3683 312° West 436 502 40,000 480 Climbing Albuquerque Center
06:05PM 35.0422 -113.5047 294° West 436 502 40,000  Level Albuquerque Center
06:06PM 35.1119 -113.6325 304° West 448 516 40,000  Level Albuquerque Center
06:07PM 35.1844 -113.7622 304° West 458 527 40,000  Level Albuquerque Center
06:08PM 35.2714 -113.9167 305° West 461 531 40,000  Level Albuquerque Center
06:09PM 35.3567 -114.0672 305° West 464 534 40,000  Level Los Angeles Center
06:10PM 35.4294 -114.1969 305° West 463 533 40,000  Level Los Angeles Center
06:11PM 35.5172 -114.3536 305° West 462 532 40,000  Level Los Angeles Center
06:12PM 35.5892 -114.4856 304° West 464 534 40,000  Level Los Angeles Center
06:13PM 35.6611 -114.6150 304° West 460 529 40,000  Level Los Angeles Center
06:15PM 35.7331 -114.7456 304° West 460 529 40,000  Level Los Angeles Center
06:16PM 35.8050 -114.8761 304° West 460 529 40,000  Level Los Angeles Center
06:17PM 35.8900 -115.0314 304° West 456 525 40,000  Level Los Angeles Center
06:18PM 35.9619 -115.1633 304° West 462 532 40,000  Level Los Angeles Center
06:19PM 36.0342 -115.2978 304° West 468 539 40,000  Level Los Angeles Center
06:20PM 36.1067 -115.4300 304° West 465 535 40,000  Level Los Angeles Center
06:21PM 36.1778 -115.5642 303° West 461 531 40,000  Level Los Angeles Center
06:22PM 36.2514 -115.7028 303° West 467 537 40,000  Level Los Angeles Center
06:23PM 36.3244 -115.8408 303° West 470 541 40,000  Level Los Angeles Center
06:24PM 36.4044 -115.9897 304° West 468 539 40,000  Level Los Angeles Center
06:25PM 36.4753 -116.1222 304° West 463 533 40,000  Level Los Angeles Center
06:26PM 36.5456 -116.2581 303° West 466 536 40,000  Level Los Angeles Center
06:27PM 36.6164 -116.3922 303° West 464 534 40,000  Level Los Angeles Center
06:28PM 36.6875 -116.5283 303° West 466 536 40,000  Level Los Angeles Center
06:29PM 36.7731 -116.6933 303° West 472 543 40,000  Level Los Angeles Center
06:30PM 36.8681 -116.8058 317° Northwest 471 542 40,000  Level Los Angeles Center
06:31PM 36.9775 -116.8981 326° Northwest 473 544 40,000  Level Los Angeles Center
06:31PM 36.9994 -116.9153 328° Northwest 471 542 40,000  Level Oakland Center
06:32PM 37.1303 -117.0261 326° Northwest 473 544 40,000  Level Oakland Center
06:33PM 37.1869 -117.0944 316° Northwest 475 547 40,000  Level Los Angeles Center
06:33PM 37.2192 -117.1444 309° West 466 536 40,000  Level Oakland Center
06:34PM 37.3022 -117.2739 309° West 472 543 40,000 -420 Level Oakland Center
06:36PM 37.3853 -117.4003 310° West 470 541 39,200 -1,140 Descending Oakland Center
06:37PM 37.4667 -117.5197 311° West 454 522 37,800 -1,380 Descending Oakland Center
06:38PM 37.5442 -117.6344 310° West 434 499 36,400 -1,620 Descending Oakland Center
06:39PM 37.6189 -117.7533 308° West 431 496 34,500 -1,920 Descending Oakland Center
06:40PM 37.6928 -117.8750 308° West 432 497 32,500 -1,980 Descending Oakland Center
06:41PM 37.7339 -118.0217 290° West 461 531 30,500 -1,260 Descending Oakland Center
06:42PM 37.6942 -118.1817 253° West 483 556 30,000 -900 Descending Oakland Center
06:43PM 37.6036 -118.3628 238° Southwest 505 581 28,700 -1,740 Descending Oakland Center
06:44PM 37.5336 -118.5053 238° Southwest 484 557 26,500 -2,520 Descending Oakland Center
06:45PM 37.4639 -118.6483 238° Southwest 480 552 23,600 -2,220 Descending Oakland Center
06:46PM 37.3933 -118.7922 238° Southwest 482 555 22,000 -840 Descending Oakland Center
06:47PM 37.3208 -118.9361 238° Southwest 483 556 22,000 -900 Level Oakland Center
06:48PM 37.2533 -119.0778 239° Southwest 478 550 20,200 -1,860 Descending Oakland Center
06:49PM 37.1869 -119.2131 238° Southwest 457 526 18,200 -2,520 Descending Oakland Center
06:50PM 37.1764 -119.3528 265° West 423 487 15,100 -1,560 Descending Oakland Center
06:52PM 37.0177 -119.4986 236° Southwest  Level Estimated
06:53PM 37.1722 -119.7122 236° Southwest 332 382 11,900  Level Oakland Center
06:54PM 37.0828 -119.7447 196° South 336 387 11,200 -960 Descending Oakland Center
06:55PM 36.9969 -119.7753 196° South 319 367 10,000 -1,620 Descending Oakland Center
06:56PM 36.9206 -119.7519 166° South 293 337 8,000 -2,280 Descending Oakland Center
06:57PM 36.8494 -119.7092 154° Southeast 285 328 5,400 -2,580 Descending Oakland Center
06:58PM 36.7983 -119.6394 132° Southeast 275 316 2,800 -1,680 Descending Oakland Center
06:59PM 36.7400 -119.6067 156° South 223 257 2,000 -660 Descending Oakland Center
07:00PM 36.7364 -119.6514 264° West 138 159 1,500 -600 Descending Oakland Center
07:01PM 36.7583 -119.6889 306° West 126 145 800 -600 Descending Oakland Center
07:02PM 36.7783 -119.7239 306° West 124 143 300 -540 Descending Oakland Center